Terminal Aerodrome Forecast
Issued by NWS Northern Indiana

Home | Current Version | Previous Version | Graphics & Text | Print | Product List | Glossary On
Versions: 1 2 3 4 5 6 7 8 9 10 11 12 13 14 15 16 17 18 19 20 21 22 23 24
743
FTUS43 KIWX 301122
TAFFWA
TAF
KFWA 301122Z 3012/3112 08005KT 3SM BR OVC005
     FM301300 08005KT 3SM BR OVC015
     FM301500 08005KT 6SM BR BKN020
     FM301600 VRB03KT P6SM BKN035
     FM302100 22004KT P6SM VCTS BKN050CB
     FM310300 24003KT 3SM BR SCT050 BKN200
     FM310800 29003KT 2SM BR BKN015=

USA.gov is the U.S. government's official web portal to all federal, state and local government web resources and services.